Location: Strawberry
(45.6646°N, 111.9596°W)
Time: 21:05:32
(UTC+00:00)

RS-15 - Pass Details

Date: 05 December 2022
Orbit: 1883 x 2162 km, 64.8° (Epoch: 08 February)

Event Time Altitude Azimuth Distance (km) Brightness Sun altitude
Rises 03:30:56 0° 322° (NW) 5,685 11.0 -38.7°
Reaches altitude 10° 03:34:26 10° 323° (NW) 4,664 10.4 -39.3°
Enters shadow 03:46:09 82° 2° (N) 2,109 7.9 -41.4°
